"FRM_AIS_EDR_2797.DAT           ",2006-03-16T20:43:54.79 ,"1/0090621831.14075",    0,    0,   38179,"AIS","B1","B2","B0","B0","PISd",0,0,0,0,"B1", 0,15,   0, 0,    0,"AIS","N/A    ","OK ","OK ",    001321.496,    0019.807,    0162.595,    0018.754,    0096.735
"FRM_AIS_EDR_2797.DAT           ",2006-03-16T20:44:02.34 ,"1/0090621838.49675",    0,    1,   38179,"AIS","B1","B2","B0","B0","PISd",0,0,0,0,"B1", 0,15,   0, 0,    0,"AIS","N/A    ","OK ","OK ",    001310.614,    0019.501,    0162.585,    0018.756,    0096.828
"FRM_AIS_EDR_2797.DAT           ",2006-03-16T20:44:09.88 ,"1/0090621846.19738",    0,    2,   38179,"AIS","B1","B2","B0","B0","PISd",0,0,0,0,"B1", 0,15,   0, 0,    0,"AIS","N/A    ","OK ","OK ",    001299.758,    0019.194,    0162.574,    0018.757,    0096.922
"FRM_AIS_EDR_2797.DAT           ",2006-03-16T20:44:17.42 ,"1/0090621853.55338",    0,    3,   38179,"AIS","B1","B2","B0","B0","PISd",0,0,0,0,"B1", 0,15,   0, 0,    0,"AIS","N/A    ","OK ","OK ",    001288.927,    0018.885,    0162.564,    0018.759,    0097.016
"FRM_AIS_EDR_2797.DAT           ",2006-03-16T20:44:24.97 ,"1/0090621861.25401",    0,    4,   38179,"AIS","B1","B2","B0","B0","PISd",0,0,0,0,"B1", 0,15,   0, 0,    0,"AIS","N/A    ","OK ","OK ",    001278.124,    0018.575,    0162.554,    0018.760,    0097.110
"FRM_AIS_EDR_2797.DAT           ",2006-03-16T20:44:32.51 ,"1/0090621868.61000",    0,    5,   38179,"AIS","B1","B2","B0","B0","PISd",0,0,0,0,"B1", 0,15,   0, 0,    0,"AIS","N/A    ","OK ","OK ",    001267.347,    0018.264,    0162.544,    0018.761,    0097.205
"FRM_AIS_EDR_2797.DAT           ",2006-03-16T20:44:40.05 ,"1/0090621876.31064",    0,    6,   38179,"AIS","B1","B2","B0","B0","PISd",0,0,0,0,"B1", 0,15,   0, 0,    0,"AIS","N/A    ","OK ","OK ",    001256.597,    0017.951,    0162.533,    0018.763,    0097.299
"FRM_AIS_EDR_2797.DAT           ",2006-03-16T20:44:47.60 ,"1/0090621884.01127",    0,    7,   38179,"AIS","B1","B2","B0","B0","PISd",0,0,0,0,"B1", 0,15,   0, 0,    0,"AIS","N/A    ","OK ","OK ",    001245.875,    0017.636,    0162.523,    0018.764,    0097.394
"FRM_AIS_EDR_2797.DAT           ",2006-03-16T20:44:55.14 ,"1/0090621891.36726",    0,    8,   38179,"AIS","B1","B2","B0","B0","PISd",0,0,0,0,"B1", 0,15,   0, 0,    0,"AIS","N/A    ","OK ","OK ",    001235.182,    0017.321,    0162.513,    0018.765,    0097.490
"FRM_AIS_EDR_2797.DAT           ",2006-03-16T20:45:02.68 ,"1/0090621899.06790",    0,    9,   38179,"AIS","B1","B2","B0","B0","PISd",0,0,0,0,"B1", 0,15,   0, 0,    0,"AIS","N/A    ","OK ","OK ",    001224.517,    0017.003,    0162.503,    0018.767,    0097.585
"FRM_AIS_EDR_2797.DAT           ",2006-03-16T20:45:10.23 ,"1/0090621906.42389",    0,   10,   38179,"AIS","B1","B2","B0","B0","PISd",0,0,0,0,"B1", 0,15,   0, 0,    0,"AIS","N/A    ","OK ","OK ",    001213.882,    0016.684,    0162.493,    0018.768,    0097.681
"FRM_AIS_EDR_2797.DAT           ",2006-03-16T20:45:17.77 ,"1/0090621914.12452",    0,   11,   38179,"AIS","B1","B2","B0","B0","PISd",0,0,0,0,"B1", 0,15,   0, 0,    0,"AIS","N/A    ","OK ","OK ",    001203.276,    0016.364,    0162.483,    0018.769,    0097.777
"FRM_AIS_EDR_2797.DAT           ",2006-03-16T20:45:25.31 ,"1/0090621921.48052",    0,   12,   38179,"AIS","B1","B2","B0","B0","PISd",0,0,0,0,"B1", 0,15,   0, 0,    0,"AIS","N/A    ","OK ","OK ",    001192.701,    0016.042,    0162.473,    0018.771,    0097.873
"FRM_AIS_EDR_2797.DAT           ",2006-03-16T20:45:32.86 ,"1/0090621929.18115",    0,   13,   38179,"AIS","B1","B2","B0","B0","PISd",0,0,0,0,"B1", 0,15,   0, 0,    0,"AIS","N/A    ","OK ","OK ",    001182.156,    0015.719,    0162.463,    0018.772,    0097.969
"FRM_AIS_EDR_2797.DAT           ",2006-03-16T20:45:40.40 ,"1/0090621936.53715",    0,   14,   38179,"AIS","B1","B2","B0","B0","PISd",0,0,0,0,"B1", 0,15,   0, 0,    0,"AIS","N/A    ","OK ","OK ",    001171.643,    0015.395,    0162.453,    0018.774,    0098.066
"FRM_AIS_EDR_2797.DAT           ",2006-03-16T20:45:47.94 ,"1/0090621944.23778",    0,   15,   38179,"AIS","B1","B2","B0","B0","PISd",0,0,0,0,"B1", 0,15,   0, 0,    0,"AIS","N/A    ","OK ","OK ",    001161.161,    0015.068,    0162.443,    0018.775,    0098.162
"FRM_AIS_EDR_2797.DAT           ",2006-03-16T20:45:55.48 ,"1/0090621951.59377",    0,   16,   38179,"AIS","B1","B2","B0","B0","PISd",0,0,0,0,"B1", 0,15,   0, 0,    0,"AIS","N/A    ","OK ","OK ",    001150.711,    0014.741,    0162.433,    0018.776,    0098.259
"FRM_AIS_EDR_2797.DAT           ",2006-03-16T20:46:03.03 ,"1/0090621959.29441",    0,   17,   38179,"AIS","B1","B2","B0","B0","PISd",0,0,0,0,"B1", 0,15,   0, 0,    0,"AIS","N/A    ","OK ","OK ",    001140.295,    0014.412,    0162.423,    0018.778,    0098.356
"FRM_AIS_EDR_2797.DAT           ",2006-03-16T20:46:10.57 ,"1/0090621966.65040",    0,   18,   38179,"AIS","B1","B2","B0","B0","PISd",0,0,0,0,"B1", 0,15,   0, 0,    0,"AIS","N/A    ","OK ","OK ",    001129.911,    0014.081,    0162.413,    0018.779,    0098.454
"FRM_AIS_EDR_2797.DAT           ",2006-03-16T20:46:18.11 ,"1/0090621974.35103",    0,   19,   38179,"AIS","B1","B2","B0","B0","PISd",0,0,0,0,"B1", 0,15,   0, 0,    0,"AIS","N/A    ","OK ","OK ",    001119.561,    0013.749,    0162.403,    0018.781,    0098.551
"FRM_AIS_EDR_2797.DAT           ",2006-03-16T20:46:25.66 ,"1/0090621982.05167",    0,   20,   38179,"AIS","B1","B2","B0","B0","PISd",0,0,0,0,"B1", 0,15,   0, 0,    0,"AIS","N/A    ","OK ","OK ",    001109.246,    0013.415,    0162.394,    0018.782,    0098.649
"FRM_AIS_EDR_2797.DAT           ",2006-03-16T20:46:33.20 ,"1/0090621989.40766",    0,   21,   38179,"AIS","B1","B2","B0","B0","PISd",0,0,0,0,"B1", 0,15,   0, 0,    0,"AIS","N/A    ","OK ","OK ",    001098.965,    0013.080,    0162.384,    0018.783,    0098.747
"FRM_AIS_EDR_2797.DAT           ",2006-03-16T20:46:40.74 ,"1/0090621997.10829",    0,   22,   38179,"AIS","B1","B2","B0","B0","PISd",0,0,0,0,"B1", 0,15,   0, 0,    0,"AIS","N/A    ","OK ","OK ",    001088.720,    0012.743,    0162.374,    0018.785,    0098.845
"FRM_AIS_EDR_2797.DAT           ",2006-03-16T20:46:48.29 ,"1/0090622004.46429",    0,   23,   38179,"AIS","B1","B2","B0","B0","PISd",0,0,0,0,"B1", 0,15,   0, 0,    0,"AIS","N/A    ","OK ","OK ",    001078.510,    0012.405,    0162.364,    0018.786,    0098.943
"FRM_AIS_EDR_2797.DAT           ",2006-03-16T20:46:55.83 ,"1/0090622012.16492",    0,   24,   38179,"AIS","B1","B2","B0","B0","PISd",0,0,0,0,"B1", 0,15,   0, 0,    0,"AIS","N/A    ","OK ","OK ",    001068.337,    0012.065,    0162.355,    0018.788,    0099.041
"FRM_AIS_EDR_2797.DAT           ",2006-03-16T20:47:03.37 ,"1/0090622019.52092",    0,   25,   38179,"AIS","B1","B2","B0","B0","PISd",0,0,0,0,"B1", 0,15,   0, 0,    0,"AIS","N/A    ","OK ","OK ",    001058.201,    0011.724,    0162.345,    0018.789,    0099.140
"FRM_AIS_EDR_2797.DAT           ",2006-03-16T20:47:10.92 ,"1/0090622027.22155",    0,   26,   38179,"AIS","B1","B2","B0","B0","PISd",0,0,0,0,"B1", 0,15,   0, 0,    0,"AIS","N/A    ","OK ","OK ",    001048.102,    0011.381,    0162.336,    0018.790,    0099.238
"FRM_AIS_EDR_2797.DAT           ",2006-03-16T20:47:18.46 ,"1/0090622034.57754",    0,   27,   38179,"AIS","B1","B2","B0","B0","PISd",0,0,0,0,"B1", 0,15,   0, 0,    0,"AIS","N/A    ","OK ","OK ",    001038.041,    0011.036,    0162.326,    0018.792,    0099.337
"FRM_AIS_EDR_2797.DAT           ",2006-03-16T20:47:26.00 ,"1/0090622042.27818",    0,   28,   38179,"AIS","B1","B2","B0","B0","PISd",0,0,0,0,"B1", 0,15,   0, 0,    0,"AIS","N/A    ","OK ","OK ",    001028.019,    0010.690,    0162.317,    0018.793,    0099.436
"FRM_AIS_EDR_2797.DAT           ",2006-03-16T20:47:33.55 ,"1/0090622049.63417",    0,   29,   38179,"AIS","B1","B2","B0","B0","PISd",0,0,0,0,"B1", 0,15,   0, 0,    0,"AIS","N/A    ","OK ","OK ",    001018.036,    0010.342,    0162.307,    0018.794,    0099.535
"FRM_AIS_EDR_2797.DAT           ",2006-03-16T20:47:41.09 ,"1/0090622057.33480",    0,   30,   38179,"AIS","B1","B2","B0","B0","PISd",0,0,0,0,"B1", 0,15,   0, 0,    0,"AIS","N/A    ","OK ","OK ",    001008.093,    0009.993,    0162.298,    0018.796,    0099.634
"FRM_AIS_EDR_2797.DAT           ",2006-03-16T20:47:48.63 ,"1/0090622065.03544",    0,   31,   38179,"AIS","B1","B2","B0","B0","PISd",0,0,0,0,"B1", 0,15,   0, 0,    0,"AIS","N/A    ","OK ","OK ",    000998.190,    0009.643,    0162.288,    0018.797,    0099.733
"FRM_AIS_EDR_2797.DAT           ",2006-03-16T20:47:56.18 ,"1/0090622072.39143",    0,   32,   38179,"AIS","B1","B2","B0","B0","PISd",0,0,0,0,"B1", 0,15,   0, 0,    0,"AIS","N/A    ","OK ","OK ",    000988.328,    0009.290,    0162.279,    0018.799,    0099.832
"FRM_AIS_EDR_2797.DAT           ",2006-03-16T20:48:03.72 ,"1/0090622080.09206",    0,   33,   38179,"AIS","B1","B2","B0","B0","PISd",0,0,0,0,"B1", 0,15,   0, 0,    0,"AIS","N/A    ","OK ","OK ",    000978.507,    0008.936,    0162.270,    0018.800,    0099.932
"FRM_AIS_EDR_2797.DAT           ",2006-03-16T20:48:11.26 ,"1/0090622087.44806",    0,   34,   38179,"AIS","B1","B2","B0","B0","PISd",0,0,0,0,"B1", 0,15,   0, 0,    0,"AIS","N/A    ","OK ","OK ",    000968.729,    0008.581,    0162.261,    0018.802,    0100.031
"FRM_AIS_EDR_2797.DAT           ",2006-03-16T20:48:18.81 ,"1/0090622095.14869",    0,   35,   38179,"AIS","B1","B2","B0","B0","PISd",0,0,0,0,"B1", 0,15,   0, 0,    0,"AIS","N/A    ","OK ","OK ",    000958.992,    0008.224,    0162.252,    0018.803,    0100.131
"FRM_AIS_EDR_2797.DAT           ",2006-03-16T20:48:26.35 ,"1/0090622102.50468",    0,   36,   38179,"AIS","B1","B2","B0","B0","PISd",0,0,0,0,"B1", 0,15,   0, 0,    0,"AIS","N/A    ","OK ","OK ",    000949.300,    0007.865,    0162.243,    0018.804,    0100.230
"FRM_AIS_EDR_2797.DAT           ",2006-03-16T20:48:33.89 ,"1/0090622110.20532",    0,   37,   38179,"AIS","B1","B2","B0","B0","PISd",0,0,0,0,"B1", 0,15,   0, 0,    0,"AIS","N/A    ","OK ","OK ",    000939.650,    0007.505,    0162.234,    0018.806,    0100.330
"FRM_AIS_EDR_2797.DAT           ",2006-03-16T20:48:41.44 ,"1/0090622117.56131",    0,   38,   38179,"AIS","B1","B2","B0","B0","PISd",0,0,0,0,"B1", 0,15,   0, 0,    0,"AIS","N/A    ","OK ","OK ",    000930.046,    0007.143,    0162.225,    0018.808,    0100.430
"FRM_AIS_EDR_2797.DAT           ",2006-03-16T21:18:54.73 ,"1/0090623931.10224",    7,    0,   38179,"AIS","B1","B2","B0","B0","PISd",0,0,0,0,"B1", 0,15,   0, 0,    0,"AIS","N/A    ","OK ","OK ",    000942.346,    -078.456,    -041.503,    0005.716,    0101.391
"FRM_AIS_EDR_2797.DAT           ",2006-03-16T21:19:02.28 ,"1/0090623938.45823",    7,    1,   38179,"AIS","B1","B2","B0","B0","PISd",0,0,0,0,"B1", 0,15,   0, 0,    0,"AIS","N/A    ","OK ","OK ",    000951.855,    -078.109,    -041.015,    0005.751,    0101.298
"FRM_AIS_EDR_2797.DAT           ",2006-03-16T21:19:09.82 ,"1/0090623946.15886",    7,    2,   38179,"AIS","B1","B2","B0","B0","PISd",0,0,0,0,"B1", 0,15,   0, 0,    0,"AIS","N/A    ","OK ","OK ",    000961.407,    -077.762,    -040.558,    0005.783,    0101.204
"FRM_AIS_EDR_2797.DAT           ",2006-03-16T21:19:17.36 ,"1/0090623953.51486",    7,    3,   38179,"AIS","B1","B2","B0","B0","PISd",0,0,0,0,"B1", 0,15,   0, 0,    0,"AIS","N/A    ","OK ","OK ",    000971.000,    -077.416,    -040.130,    0005.814,    0101.110
"FRM_AIS_EDR_2797.DAT           ",2006-03-16T21:19:24.91 ,"1/0090623961.21549",    7,    4,   38179,"AIS","B1","B2","B0","B0","PISd",0,0,0,0,"B1", 0,15,   0, 0,    0,"AIS","N/A    ","OK ","OK ",    000980.635,    -077.071,    -039.728,    0005.842,    0101.017
"FRM_AIS_EDR_2797.DAT           ",2006-03-16T21:19:32.45 ,"1/0090623968.57148",    7,    5,   38179,"AIS","B1","B2","B0","B0","PISd",0,0,0,0,"B1", 0,15,   0, 0,    0,"AIS","N/A    ","OK ","OK ",    000990.310,    -076.726,    -039.350,    0005.870,    0100.923
"FRM_AIS_EDR_2797.DAT           ",2006-03-16T21:19:39.99 ,"1/0090623976.27212",    7,    6,   38179,"AIS","B1","B2","B0","B0","PISd",0,0,0,0,"B1", 0,15,   0, 0,    0,"AIS","N/A    ","OK ","OK ",    001000.025,    -076.383,    -038.994,    0005.895,    0100.830
"FRM_AIS_EDR_2797.DAT           ",2006-03-16T21:19:47.54 ,"1/0090623983.62811",    7,    7,   38179,"AIS","B1","B2","B0","B0","PISd",0,0,0,0,"B1", 0,15,   0, 0,    0,"AIS","N/A    ","OK ","OK ",    001009.780,    -076.040,    -038.658,    0005.920,    0100.736
"FRM_AIS_EDR_2797.DAT           ",2006-03-16T21:19:55.08 ,"1/0090623991.32874",    7,    8,   38179,"AIS","B1","B2","B0","B0","PISd",0,0,0,0,"B1", 0,15,   0, 0,    0,"AIS","N/A    ","OK ","OK ",    001019.574,    -075.698,    -038.341,    0005.943,    0100.643
"FRM_AIS_EDR_2797.DAT           ",2006-03-16T21:20:02.62 ,"1/0090623999.02938",    7,    9,   38179,"AIS","B1","B2","B0","B0","PISd",0,0,0,0,"B1", 0,15,   0, 0,    0,"AIS","N/A    ","OK ","OK ",    001029.406,    -075.358,    -038.041,    0005.965,    0100.549
"FRM_AIS_EDR_2797.DAT           ",2006-03-16T21:20:10.17 ,"1/0090624006.38537",    7,   10,   38179,"AIS","B1","B2","B0","B0","PISd",0,0,0,0,"B1", 0,15,   0, 0,    0,"AIS","N/A    ","OK ","OK ",    001039.276,    -075.018,    -037.758,    0005.986,    0100.456
"FRM_AIS_EDR_2797.DAT           ",2006-03-16T21:20:17.71 ,"1/0090624014.08600",    7,   11,   38179,"AIS","B1","B2","B0","B0","PISd",0,0,0,0,"B1", 0,15,   0, 0,    0,"AIS","N/A    ","OK ","OK ",    001049.184,    -074.680,    -037.489,    0006.006,    0100.362
"FRM_AIS_EDR_2797.DAT           ",2006-03-16T21:20:25.25 ,"1/0090624021.44200",    7,   12,   38179,"AIS","B1","B2","B0","B0","PISd",0,0,0,0,"B1", 0,15,   0, 0,    0,"AIS","N/A    ","OK ","OK ",    001059.129,    -074.343,    -037.234,    0006.025,    0100.269
"FRM_AIS_EDR_2797.DAT           ",2006-03-16T21:20:32.80 ,"1/0090624029.14263",    7,   13,   38179,"AIS","B1","B2","B0","B0","PISd",0,0,0,0,"B1", 0,15,   0, 0,    0,"AIS","N/A    ","OK ","OK ",    001069.110,    -074.007,    -036.992,    0006.043,    0100.176
"FRM_AIS_EDR_2797.DAT           ",2006-03-16T21:20:40.34 ,"1/0090624036.49862",    7,   14,   38179,"AIS","B1","B2","B0","B0","PISd",0,0,0,0,"B1", 0,15,   0, 0,    0,"AIS","N/A    ","OK ","OK ",    001079.126,    -073.672,    -036.763,    0006.061,    0100.083
"FRM_AIS_EDR_2797.DAT           ",2006-03-16T21:20:47.88 ,"1/0090624044.19926",    7,   15,   38179,"AIS","B1","B2","B0","B0","PISd",0,0,0,0,"B1", 0,15,   0, 0,    0,"AIS","N/A    ","OK ","OK ",    001089.179,    -073.338,    -036.544,    0006.077,    0099.990
"FRM_AIS_EDR_2797.DAT           ",2006-03-16T21:20:55.43 ,"1/0090624051.55525",    7,   16,   38179,"AIS","B1","B2","B0","B0","PISd",0,0,0,0,"B1", 0,15,   0, 0,    0,"AIS","N/A    ","OK ","OK ",    001099.266,    -073.006,    -036.336,    0006.093,    0099.897
"FRM_AIS_EDR_2797.DAT           ",2006-03-16T21:21:02.97 ,"1/0090624059.25588",    7,   17,   38179,"AIS","B1","B2","B0","B0","PISd",0,0,0,0,"B1", 0,15,   0, 0,    0,"AIS","N/A    ","OK ","OK ",    001109.387,    -072.675,    -036.138,    0006.108,    0099.804
"FRM_AIS_EDR_2797.DAT           ",2006-03-16T21:21:10.51 ,"1/0090624066.61188",    7,   18,   38179,"AIS","B1","B2","B0","B0","PISd",0,0,0,0,"B1", 0,15,   0, 0,    0,"AIS","N/A    ","OK ","OK ",    001119.543,    -072.345,    -035.950,    0006.123,    0099.711
"FRM_AIS_EDR_2797.DAT           ",2006-03-16T21:21:18.06 ,"1/0090624074.31251",    7,   19,   38179,"AIS","B1","B2","B0","B0","PISd",0,0,0,0,"B1", 0,15,   0, 0,    0,"AIS","N/A    ","OK ","OK ",    001129.732,    -072.016,    -035.770,    0006.137,    0099.618
"FRM_AIS_EDR_2797.DAT           ",2006-03-16T21:21:25.60 ,"1/0090624082.01314",    7,   20,   38179,"AIS","B1","B2","B0","B0","PISd",0,0,0,0,"B1", 0,15,   0, 0,    0,"AIS","N/A    ","OK ","OK ",    001139.954,    -071.689,    -035.598,    0006.150,    0099.526
"FRM_AIS_EDR_2797.DAT           ",2006-03-16T21:21:33.14 ,"1/0090624089.36914",    7,   21,   38179,"AIS","B1","B2","B0","B0","PISd",0,0,0,0,"B1", 0,15,   0, 0,    0,"AIS","N/A    ","OK ","OK ",    001150.208,    -071.363,    -035.434,    0006.163,    0099.433
"FRM_AIS_EDR_2797.DAT           ",2006-03-16T21:21:40.69 ,"1/0090624097.06977",    7,   22,   38179,"AIS","B1","B2","B0","B0","PISd",0,0,0,0,"B1", 0,15,   0, 0,    0,"AIS","N/A    ","OK ","OK ",    001160.494,    -071.038,    -035.277,    0006.176,    0099.341
"FRM_AIS_EDR_2797.DAT           ",2006-03-16T21:21:48.23 ,"1/0090624104.42576",    7,   23,   38179,"AIS","B1","B2","B0","B0","PISd",0,0,0,0,"B1", 0,15,   0, 0,    0,"AIS","N/A    ","OK ","OK ",    001170.812,    -070.715,    -035.128,    0006.188,    0099.249
"FRM_AIS_EDR_2797.DAT           ",2006-03-16T21:21:55.77 ,"1/0090624112.12640",    7,   24,   38179,"AIS","B1","B2","B0","B0","PISd",0,0,0,0,"B1", 0,15,   0, 0,    0,"AIS","N/A    ","OK ","OK ",    001181.161,    -070.392,    -034.985,    0006.199,    0099.157
"FRM_AIS_EDR_2797.DAT           ",2006-03-16T21:22:03.31 ,"1/0090624119.48239",    7,   25,   38179,"AIS","B1","B2","B0","B0","PISd",0,0,0,0,"B1", 0,15,   0, 0,    0,"AIS","N/A    ","OK ","OK ",    001191.540,    -070.071,    -034.847,    0006.211,    0099.065
"FRM_AIS_EDR_2797.DAT           ",2006-03-16T21:22:10.86 ,"1/0090624127.18302",    7,   26,   38179,"AIS","B1","B2","B0","B0","PISd",0,0,0,0,"B1", 0,15,   0, 0,    0,"AIS","N/A    ","OK ","OK ",    001201.950,    -069.752,    -034.716,    0006.221,    0098.973
"FRM_AIS_EDR_2797.DAT           ",2006-03-16T21:22:18.40 ,"1/0090624134.53902",    7,   32,   38179,"AIS","B1","B2","B0","B0","PISd",0,0,0,0,"B1", 0,15,   0, 0,    0,"AIS","N/A    ","OK ","OK ",    001212.389,    -069.434,    -034.591,    0006.232,    0098.882
"FRM_AIS_EDR_2797.DAT           ",2006-03-16T21:23:03.66 ,"1/0090624180.05354",    7,   33,   38179,"AIS","B1","B2","B0","B0","PISd",0,0,0,0,"B1", 0,15,   0, 0,    0,"AIS","N/A    ","OK ","OK ",    001275.621,    -067.552,    -033.938,    0006.287,    0098.336
"FRM_AIS_EDR_2797.DAT           ",2006-03-16T21:23:11.20 ,"1/0090624187.40953",    7,   34,   38179,"AIS","B1","B2","B0","B0","PISd",0,0,0,0,"B1", 0,15,   0, 0,    0,"AIS","N/A    ","OK ","OK ",    001286.255,    -067.243,    -033.844,    0006.296,    0098.246
"FRM_AIS_EDR_2797.DAT           ",2006-03-16T21:23:18.75 ,"1/0090624195.11016",    7,   35,   38179,"AIS","B1","B2","B0","B0","PISd",0,0,0,0,"B1", 0,15,   0, 0,    0,"AIS","N/A    ","OK ","OK ",    001296.916,    -066.935,    -033.754,    0006.304,    0098.155
"FRM_AIS_EDR_2797.DAT           ",2006-03-16T21:23:26.29 ,"1/0090624202.46616",    7,   36,   38179,"AIS","B1","B2","B0","B0","PISd",0,0,0,0,"B1", 0,15,   0, 0,    0,"AIS","N/A    ","OK ","OK ",    001307.602,    -066.629,    -033.667,    0006.312,    0098.065
"FRM_AIS_EDR_2797.DAT           ",2006-03-16T21:23:33.83 ,"1/0090624210.16679",    7,   37,   38179,"AIS","B1","B2","B0","B0","PISd",0,0,0,0,"B1", 0,15,   0, 0,    0,"AIS","N/A    ","OK ","OK ",    001318.313,    -066.324,    -033.584,    0006.319,    0097.976
"FRM_AIS_EDR_2797.DAT           ",2006-03-16T21:23:41.38 ,"1/0090624217.52278",    7,   38,   38179,"AIS","B1","B2","B0","B0","PISd",0,0,0,0,"B1", 0,15,   0, 0,    0,"AIS","N/A    ","OK ","OK ",    001329.050,    -066.020,    -033.503,    0006.327,    0097.886
